Regional Weather Roundup
Issued by NWS Goodland, KS

Home | Current Version | Previous Version | Text Only | Print | Product List | Glossary On
Versions: 1 2 3 4 5 6 7 8 9 10 11 12 13 14 15 16 17 18 19 20 21 22 23 24 25 26 27 28 29 30 31 32 33 34 35 36 37 38 39 40 41 42 43 44 45 46 47 48 49 50
000
ASUS43 KGLD 282108
RWRGLD

GOODLAND FORECAST AREA HOURLY WEATHER ROUNDUP
NATIONAL WEATHER SERVICE GOODLAND KS
300 PM MDT TUE MAR 28 2017

...OFFICIAL OBSERVATIONS...

CITY           SKY/WX    TMP DP  RH WIND       PRES   REMARKS
GOODLAND KS    RAIN      44  43  96 SE17      29.93R FOG
HILL CITY KS   LGT RAIN  49  47  93 E7        29.96F FOG
IMPERIAL NEB   LGT RAIN  45  43  93 SE16      29.96R FOG
MCCOOK NEB     LGT RAIN  47  46  97 E10       29.99F FOG
AKRON CO       LGT RAIN  45  43  93 SE18G25   29.86S
BURLINGTON CO  RAIN      45  44  97 SE18      29.91R FOG
LIMON CO       LGT RAIN  44  43  96 E6        29.85S FOG
$$

...UNOFFICIAL OBSERVATIONS...

CITY           SKY/WX    TMP DP  RH WIND       PRES   REMARKS
NORTON KS      DRIZZLE   48  41  76 E7        29.97F
SHARON SPRINGS   N/A     43  42  95 E7          N/A
TRENTON NEB      N/A     45  32  60 SE10        N/A
KIT CARSON CO    N/A     45  42  89 MISG        N/A
YUMA CO        CLOUDY    43  41  93 SE21G26   29.89R
$$




USA.gov is the U.S. government's official web portal to all federal, state and local government web resources and services.